Flag for Spain Weather past 2 weeks in Valladolid, Spain

Now
72 °F

Sunny.


Feels Like: 77 °F
Forecast: 60 / 94 °F
Wind: 2 mph from North

Location: Valladolid / Villanubla

Current Time: Aug 28, 2015 at 12:30:16 PM

Latest Report: Aug 28, 2015 at 11:30 AM


Visibility: 10 mi

Pressure: 30.15 "Hg (27.76 "Hg at 712m altitude)

Humidity: 53%

Dew point: 54 °F

Location of ValladolidLocation

Historic Weather in Valladolid — Graph

°F

Valladolid temperature yesterday

Maximum temperature yesterday: 82 °F (at 4:00 PM)
Minimum temperature yesterday: 57 °F (at 7:30 AM)
Average temperature yesterday: 73 °F

Past Weeks' High & Low Weather Summary

 TemperatureHumidityPressure
High91 °F (Aug 21, 2:00 PM)100% (Aug 24, 7:00 AM)30.24 "Hg (Aug 24, 7:00 AM)
Low46 °F (Aug 25, 7:30 AM)15% (Aug 21, 5:00 PM)29.80 "Hg (Aug 23, 8:30 PM)
Average70 °F48%30.06 "Hg
* Reported Aug 13 11:00 AM — Aug 28 11:30 AM, Valladolid, Weather by CustomWeather, © 2015

Note: Actual official high and low records may vary slightly from our data, if they occured in-between our weather recording intervals... More about our weather records

Advertising

Valladolid weather history for previous 24 hours

 ConditionsComfort  
Time TempWeatherWind HumidityBarometerVisibility
11:30 AM
Fri, Aug 28
72 °FSunny.2 mph53%30.15 "Hg10 mi
11:00 AM72 °FSunny.2 mph57%30.15 "Hg10 mi
10:30 AM70 °FSunny.1 mph60%30.15 "Hg10 mi
10:00 AM68 °FSunny.No wind64%30.15 "Hg10 mi
9:30 AM66 °FSunny.2 mph68%30.15 "Hg10 mi
9:00 AM61 °FPassing clouds.3 mph83%30.15 "HgN/A
8:30 AM59 °FClear.No wind82%30.12 "Hg10 mi
8:00 AM55 °FClear.1 mph88%30.12 "Hg10 mi
7:30 AM57 °FClear.2 mph88%30.12 "Hg10 mi
7:00 AM57 °FClear.5 mph82%30.12 "Hg10 mi
9:30 PM
Thu, Aug 27
73 °FSunny.10 mph38%30.07 "Hg10 mi
9:00 PM75 °FSunny.15 mph39%30.04 "Hg10 mi
8:30 PM77 °FSunny.16 mph39%30.04 "Hg10 mi
8:00 PM79 °FPassing clouds.17 mph37%30.04 "HgN/A
7:30 PM81 °FPassing clouds.21 mph32%30.04 "HgN/A
7:00 PM81 °FSunny.24 mph34%30.04 "Hg10 mi
6:30 PM81 °FPassing clouds.22 mph37%30.04 "HgN/A
6:00 PM81 °FPassing clouds.18 mph37%30.04 "HgN/A
5:30 PM81 °FPassing clouds.23 mph39%30.04 "HgN/A
5:00 PM81 °FPassing clouds.21 mph42%30.04 "HgN/A
4:30 PM82 °FPassing clouds.21 mph40%30.04 "HgN/A
4:00 PM82 °FPassing clouds.18 mph37%30.04 "HgN/A
3:30 PM81 °FPassing clouds.21 mph39%30.04 "HgN/A
3:00 PM81 °FSunny.21 mph39%30.04 "Hg10 mi
2:30 PM79 °FPassing clouds.21 mph39%30.04 "HgN/A
2:00 PM79 °FPassing clouds.18 mph37%30.04 "HgN/A
1:30 PM77 °FPassing clouds.16 mph39%30.04 "HgN/A
1:00 PM77 °FPassing clouds.14 mph42%30.07 "HgN/A
12:30 PM73 °FPassing clouds.15 mph50%30.07 "HgN/A
12:00 PM72 °FPassing clouds.13 mph57%30.07 "HgN/A
Weather by CustomWeather, © 2015

See weather overviewHow to use our weather pages